VK1ET-13 Weather Reports


time (UTC)temp
C
wind
direction
speed
KPH
gust
KPH
rain 1hr
cm
rain 24hr
cm
rain mn
cm
humidity
%
barometer
mb
20260905180534 9 303 6.4 12.9 0.00 0.00 0.00 75 1013.0
20260905175522 9 237 8.0 11.3 0.00 0.00 0.00 72 1012.7
20260905174531 9 277 4.8 11.3 0.00 0.00 0.00 71 1012.7
20260905173519 9 223 6.4 14.5 0.00 0.00 0.00 70 1012.6
20260905172527 9 243 4.8 12.9 0.00 0.00 0.00 71 1012.4
20260905171536 9 251 9.7 19.3 0.00 0.00 0.00 71 1012.1
20260905170525 9 263 16.1 27.4 0.00 0.00 0.00 71 1011.6
20260905165533 9 265 14.5 24.1 0.00 0.00 0.00 73 1011.2
20260905164521 9 278 16.1 33.8 0.00 0.00 0.00 73 1011.1
20260905163537 9 267 12.9 22.5 0.00 0.00 0.00 75 1011.3
20260905162517 9 293 9.7 20.9 0.00 0.00 0.00 74 1011.6
20260905161523 9 278 9.7 17.7 0.00 0.00 0.00 74 1012.0
20260905160530 9 290 11.3 19.3 0.00 0.00 0.00 74 1011.9
20260905155517 9 277 8.0 14.5 0.00 0.00 0.00 72 1012.0
20260905154523 9 274 11.3 24.1 0.00 0.00 0.00 71 1011.6
20260905153529 9 282 12.9 27.4 0.00 0.00 0.00 71 1011.4
20260905152535 10 272 11.3 20.9 0.00 0.00 0.00 71 1011.8
20260905151521 10 258 12.9 25.7 0.00 0.00 0.00 72 1011.8
20260905150528 10 254 12.9 27.4 0.00 0.00 0.00 73 1011.8
20260905145516 10 254 12.9 22.5 0.00 0.00 0.00 71 1011.6
20260905144525 10 254 12.9 24.1 0.00 0.00 0.00 70 1011.7
20260905143533 10 254 9.7 17.7 0.00 0.00 0.00 71 1011.5
20260905142519 10 259 12.9 24.1 0.00 0.00 0.00 72 1011.3
20260905141524 10 257 16.1 29.0 0.00 0.00 0.00 72 1011.4
20260905140531 10 259 12.9 25.7 0.00 0.00 0.00 70 1011.4
20260905135536 10 273 9.7 20.9 0.00 0.00 0.00 70 1011.1
20260905134521 10 256 8.0 20.9 0.00 0.00 0.00 71 1011.2
20260905133530 10 262 9.7 16.1 0.00 0.00 0.00 72 1011.4
20260905132544 10 248 9.7 17.7 0.00 0.00 0.00 74 1011.3
20260905131522 10 248 9.7 19.3 0.00 0.00 0.00 73 1011.2
20260905130528 10 249 8.0 12.9 0.00 0.00 0.00 75 1011.0
20260905125535 10 254 8.0 14.5 0.00 0.00 0.00 80 1011.4
20260905124522 10 248 9.7 17.7 0.00 0.00 0.00 82 1011.5
20260905123529 11 254 16.1 32.2 0.00 0.00 0.00 75 1011.2
20260905122536 11 257 11.3 20.9 0.00 0.00 0.00 70 1010.8
20260905121521 11 268 9.7 16.1 0.00 0.00 0.00 69 1010.8
20260905120528 11 293 9.7 20.9 0.00 0.00 0.00 70 1010.8
20260905115534 11 283 9.7 19.3 0.00 0.00 0.00 68 1010.6
20260905114518 11 288 6.4 19.3 0.00 0.00 0.00 68 1010.8
20260905113531 12 279 9.7 16.1 0.00 0.00 0.00 66 1010.9
20260905112531 12 276 12.9 22.5 0.00 0.00 0.00 64 1011.0
20260905111517 12 266 11.3 27.4 0.00 0.00 0.00 66 1011.2
20260905110523 12 267 11.3 17.7 0.00 0.00 0.00 66 1011.3
20260905105530 12 263 16.1 30.6 0.00 0.00 0.00 64 1011.1
20260905104517 12 278 12.9 35.4 0.00 0.00 0.00 65 1011.1
20260905103530 12 250 11.3 20.9 0.00 0.00 0.00 65 1011.1
20260905102529 12 260 11.3 27.4 0.00 0.00 0.00 65 1010.8
20260905101534 13 260 11.3 35.4 0.00 0.00 0.00 66 1010.7
20260905100522 13 241 14.5 29.0 0.00 0.00 0.00 68 1010.5
20260905095528 13 264 11.3 19.3 0.00 0.00 0.00 67 1010.4
20260905094534 13 281 11.3 29.0 0.00 0.00 0.00 69 1010.2
20260905093521 13 265 19.3 35.4 0.00 0.00 0.00 67 1009.9
20260905092534 13 271 11.3 27.4 0.00 0.00 0.00 69 1009.9
20260905091534 13 287 12.9 25.7 0.00 0.00 0.00 73 1009.8
20260905090518 13 267 12.9 27.4 0.00 0.00 0.00 74 1009.6
20260905085524 13 285 12.9 37.0 0.00 0.00 0.00 75 1009.4
20260905084544 13 292 14.5 24.1 0.00 0.00 0.00 76 1009.4
20260905083517 13 280 16.1 30.6 0.00 0.00 0.00 77 1009.3
20260905082530 13 275 12.9 27.4 0.00 0.00 0.00 78 1009.2
20260905081530 13 303 14.5 29.0 0.00 0.00 0.00 78 1009.2
20260905080517 12 302 16.1 30.6 0.00 0.00 0.00 78 1008.9
20260905075529 12 305 14.5 25.7 0.00 0.00 0.00 78 1009.3
20260905074529 12 297 12.9 25.7 0.00 0.00 0.00 78 1009.1
20260905073516 12 304 12.9 22.5 0.00 0.00 0.00 80 1008.9
20260905072522 12 302 12.9 32.2 0.00 0.00 0.00 82 1009.2
20260905071529 12 304 12.9 27.4 0.00 0.00 0.00 87 1009.1
20260905070550 12 283 12.9 24.1 0.00 0.00 0.00 91 1009.1
20260905065520 12 312 12.9 29.0 0.00 0.00 0.00 95 1008.8
20260905064525 12 321 9.7 22.5 0.00 0.00 0.00 94 1008.7
20260905063532 12 316 12.9 24.1 0.00 0.00 0.00 93 1008.7
20260905062517 12 322 11.3 32.2 0.00 0.00 0.00 91 1008.6
20260905061524 12 325 12.9 24.1 0.00 0.00 0.00 91 1008.7
20260905060532 12 331 11.3 24.1 0.00 0.00 0.00 92 1008.7
20260905055518 12 336 9.7 20.9 0.00 0.00 0.00 91 1008.7
20260905054524 12 342 9.7 19.3 0.00 0.00 0.00 92 1008.7
20260905053530 12 345 6.4 17.7 0.00 0.00 0.00 93 1008.9
20260905052537 12 335 4.8 17.7 0.00 0.00 0.00 94 1009.2
20260905051524 11 352 6.4 14.5 0.00 0.00 0.00 94 1009.3
20260905050529 11 351 4.8 14.5 0.00 0.00 0.00 94 1009.7
20260905045516 11 350 6.4 16.1 0.00 0.00 0.00 94 1010.2
20260905044522 11 354 6.4 14.5 0.00 0.00 0.00 93 1010.1
20260905043536 11 338 8.0 16.1 0.00 0.00 0.00 91 1010.5
20260905042534 12 322 11.3 27.4 0.00 0.00 0.00 91 1011.0
20260905041521 12 325 9.7 20.9 0.00 0.00 0.00 90 1011.4
20260905040535 12 294 9.7 17.7 0.00 0.00 0.00 89 1011.5
20260905035543 12 314 11.3 24.1 0.00 0.00 0.00 86 1011.8
20260905034522 12 289 9.7 25.7 0.00 0.00 0.00 87 1011.8
20260905033530 12 277 11.3 22.5 0.00 0.00 0.00 86 1011.9
20260905032534 13 284 12.9 30.6 0.00 0.00 0.00 84 1011.6
20260905031520 13 301 14.5 27.4 0.00 0.00 0.00 80 1012.0
20260905030542 14 312 9.7 24.1 0.00 0.00 0.00 77 1011.4
20260905025540 14 314 14.5 25.7 0.00 0.00 0.00 79 1011.4
20260905024519 14 297 14.5 29.0 0.00 0.00 0.00 78 1011.6
20260905023525 14 286 11.3 22.5 0.00 0.00 0.00 76 1011.6
20260905022520 14 290 9.7 16.1 0.00 0.00 0.00 83 1011.3
20260905021526 14 325 9.7 19.3 0.00 0.00 0.00 83 1011.3
20260905020533 13 332 8.0 20.9 0.00 0.00 0.00 84 1011.4
20260905015518 13 328 8.0 14.5 0.00 0.00 0.00 86 1011.5
20260905014524 13 345 6.4 12.9 0.00 0.00 0.00 87 1011.5
20260905013531 13 334 4.8 11.3 0.00 0.00 0.00 89 1011.9
20260905012535 13 348 4.8 11.3 0.00 0.00 0.00 90 1012.2
20260905011523 13 351 6.4 17.7 0.00 0.00 0.00 90 1012.1
20260905010529 12 335 4.8 9.7 0.00 0.00 0.00 92 1012.2
20260905005535 12 2 3.2 8.0 0.00 0.00 0.00 92 1012.4
20260905004523 12 2 4.8 9.7 0.00 0.00 0.00 93 1012.5
20260905003536 12 7 4.8 8.0 0.00 0.00 0.00 93 1012.8
20260905002517 11 2 4.8 12.9 0.00 0.00 0.00 92 1013.0
20260905001523 12 353 3.2 9.7 0.00 0.00 0.00 91 1013.5
20260905000539 12 346 3.2 9.7 0.00 0.00 0.00 90 1013.8
20260904235517 12 305 4.8 9.7 0.00 0.00 0.00 90 1013.9
20260904234523 12 334 6.4 12.9 0.00 0.00 0.00 89 1013.8
20260904233530 12 347 6.4 9.7 0.00 0.00 0.00 88 1013.4
20260904232536 11 350 4.8 9.7 0.00 0.00 0.00 90 1013.1
20260904231521 11 6 4.8 9.7 0.00 0.00 0.00 90 1013.6
20260904230528 12 360 6.4 11.3 0.00 0.00 0.00 86 1013.8
20260904225535 11 355 4.8 8.0 0.00 0.00 0.00 87 1014.1
20260904224521 11 359 6.4 11.3 0.00 0.00 0.00 87 1014.0
20260904223528 11 3 6.4 11.3 0.00 0.00 0.00 85 1014.1
20260904222534 12 357 4.8 9.7 0.00 0.00 0.00 82 1014.5
20260904221520 13 349 6.4 19.3 0.00 0.00 0.00 76 1014.6
20260904220526 12 351 4.8 9.7 0.00 0.00 0.00 78 1014.6
20260904215532 12 360 6.4 11.3 0.00 0.00 0.00 79 1014.6
20260904214517 11 9 6.4 9.7 0.00 0.00 0.00 80 1014.5
20260904213524 11 7 4.8 9.7 0.00 0.00 0.00 79 1014.5
20260904212537 11 31 3.2 6.4 0.00 0.00 0.00 80 1014.5
20260904211543 10 32 1.6 6.4 0.00 0.00 0.00 82 1014.4
20260904210521 10 38 3.2 6.4 0.00 0.00 0.00 83 1014.1
20260904205535 10 27 3.2 9.7 0.00 0.00 0.00 83 1014.2
20260904204533 10 12 4.8 9.7 0.00 0.00 0.00 84 1014.6
20260904203522 9 12 3.2 6.4 0.00 0.00 0.00 86 1014.5
20260904202527 9 25 3.2 8.0 0.00 0.00 0.00 87 1014.6
20260904201542 9 27 3.2 6.4 0.00 0.00 0.00 87 1014.4
20260904200523 9 33 3.2 6.4 0.00 0.00 0.00 87 1014.5
20260904195532 9 27 3.2 6.4 0.00 0.00 0.00 88 1014.5
20260904194526 9 43 1.6 4.8 0.00 0.00 0.00 88 1014.8
20260904193526 9 43 3.2 6.4 0.00 0.00 0.00 88 1015.1
20260904192542 9 47 3.2 6.4 0.00 0.00 0.00 88 1015.0
20260904191522 10 79 1.6 4.8 0.00 0.00 0.00 86 1015.2
20260904190531 10 341 1.6 4.8 0.00 0.00 0.00 86 1015.1
20260904185520 10 55 0.0 4.8 0.00 0.00 0.00 86 1015.0
20260904184526 10 332 1.6 6.4 0.00 0.00 0.00 86 1015.1
20260904183533 10 359 3.2 8.0 0.00 0.00 0.00 86 1015.0
20260904182522 10 358 4.8 8.0 0.00 0.00 0.00 86 1015.4
20260904181530 10 0 4.8 6.4 0.00 0.00 0.00 86 1015.1